Weather History for Altus AFB, OK

Change the Weather History Date:

Monday, August 12, 2013

  Actual Average Record
Temperature  
Mean Temperature 86 °F -  
Max Temperature 98 °F 93 °F 105 °F (1999)
Min Temperature 73 °F 70 °F 62 °F (2014)
Cooling Degree Days 20    
Growing Degree Days 36 (Base 50)    
Moisture  
Dew Point 72 °F    
Average Humidity 81    
Maximum Humidity 100    
Minimum Humidity 35    
Precipitation  
Precipitation 0.33 in - - ()
Sea Level Pressure  
Sea Level Pressure 30.00 in    
Wind  
Wind Speed 10 mph (NW)    
Max Wind Speed 22 mph    
Max Gust Speed 31 mph    
Visibility 9 miles    
Events Rain , Thunderstorm    
Averages and records for this station are not official NWS values.
T = Trace of Precipitation, MM = Missing Value Source: NWS Daily Summary

Daily Weather History Graph

Daily Weather History Graph

Search for Another Location

Airport:

Trip Planner

Search our weather history database for the weather conditions in past years. The results will help you decide how hot, cold, wet, or windy it might be!

Date:

Astronomy

Aug. 12, 2013 Rise Set
Actual Time 6:55 AM CDT 8:27 PM CDT
Civil Twilight 6:28 AM CDT 8:54 PM CDT
Nautical Twilight 5:56 AM CDT 9:26 PM CDT
Astronomical Twilight 5:22 AM CDT 10:00 PM CDT
Moon 12:30 PM CDT (8/12) 11:40 PM CDT (8/12)
Length of Visible Light 14h 26m
Length of Day
13h 32m
Waxing Crescent, 31% of the Moon is Illuminated
Aug 12
Waxing Crescent
Aug 14
First Quarter
Aug 20
Full
Aug 28
Last Quarter
Sep 5
New

Hourly Weather History & Observations

Time (CDT) Temp. Heat Index Dew Point Humidity Pressure Visibility Wind Dir Wind Speed Gust Speed Precip Events Conditions
12:03 AM 73.4 °F - 73.4 °F 100% 30.12 in 6.0 mi West 12.7 mph 31.1 mph N/A Rain , Thunderstorm Light Thunderstorms and Rain
12:08 AM 73.4 °F - 73.4 °F 100% 30.12 in 7.0 mi West 12.7 mph 21.9 mph N/A Rain , Thunderstorm Light Thunderstorms and Rain
12:23 AM 73.4 °F - 73.4 °F 100% 30.12 in 8.0 mi WNW 6.9 mph - N/A Rain , Thunderstorm Light Thunderstorms and Rain
12:43 AM 73.4 °F - 73.4 °F 100% 30.10 in 8.0 mi NW 12.7 mph - N/A Rain , Thunderstorm Light Rain
12:58 AM 73.8 °F - 73.8 °F 100% 30.04 in 8.0 mi North 8.1 mph - 0.12 in Rain Rain
1:03 AM 73.4 °F - 73.4 °F 100% 30.09 in 8.0 mi North 5.8 mph - N/A Rain Rain
1:21 AM 73.4 °F - 73.4 °F 100% 30.08 in 7.0 mi East 12.7 mph - N/A Rain , Thunderstorm Light Thunderstorms and Rain
1:36 AM 73.4 °F - 73.4 °F 100% 30.06 in 6.0 mi East 13.8 mph - N/A Rain , Thunderstorm Thunderstorms and Rain
1:40 AM 73.4 °F - 73.4 °F 100% 30.06 in 5.0 mi East 13.8 mph - N/A Rain Rain
1:58 AM 74.1 °F - 73.9 °F 99% 30.01 in 9.0 mi East 16.1 mph - 0.14 in Rain Light Rain
2:17 AM 73.4 °F - 73.4 °F 100% 30.05 in 10.0 mi ENE 13.8 mph - N/A   Mostly Cloudy
2:58 AM 73.8 °F - 73.8 °F 100% 29.99 in 10.0 mi ENE 6.9 mph - 0.00 in   Clear
3:58 AM 73.9 °F - 73.9 °F 100% 30.00 in 10.0 mi NNE 2.3 mph - N/A   Overcast
4:28 AM 75.2 °F - 75.2 °F 100% 30.05 in 8.0 mi NNW 4.6 mph - N/A   Light Drizzle
4:33 AM 75.2 °F - 75.2 °F 100% 30.04 in 8.0 mi North 5.8 mph - N/A   Light Drizzle
4:58 AM 74.1 °F - 74.1 °F 100% 29.99 in 10.0 mi Calm Calm - 0.01 in Rain Light Rain
5:08 AM 75.2 °F - 75.2 °F 100% 30.04 in 10.0 mi Calm Calm - N/A   Clear
5:58 AM 74.7 °F - 73.6 °F 96% 29.99 in 10.0 mi WSW 5.8 mph - 0.00 in   Clear
6:58 AM 73.9 °F - 73.9 °F 100% 29.97 in 10.0 mi SE 2.3 mph - N/A   Partly Cloudy
7:58 AM 75.2 °F - 75.2 °F 100% 29.99 in 10.0 mi SSE 3.5 mph - N/A   Scattered Clouds
8:58 AM 77.9 °F - 74.5 °F 89% 29.99 in 10.0 mi SSW 6.9 mph - N/A   Partly Cloudy
9:58 AM 82.2 °F 88.0 °F 73.4 °F 75% 30.01 in 10.0 mi SW 8.1 mph - N/A   Scattered Clouds
10:58 AM 85.6 °F 91.8 °F 72.1 °F 64% 30.00 in 10.0 mi SW 12.7 mph - N/A   Scattered Clouds
11:58 AM 85.5 °F 91.5 °F 72.0 °F 64% 30.01 in 10.0 mi West 5.8 mph - N/A   Scattered Clouds
12:58 PM 91.4 °F 99.5 °F 72.5 °F 54% 29.99 in 10.0 mi WSW 9.2 mph - N/A   Partly Cloudy
1:58 PM 94.5 °F 100.8 °F 70.3 °F 45% 29.97 in 10.0 mi West 10.4 mph - N/A   Partly Cloudy
2:58 PM 97.0 °F 101.6 °F 67.6 °F 38% 29.95 in 10.0 mi WSW 6.9 mph - N/A   Scattered Clouds
3:58 PM 98.1 °F 101.8 °F 66.4 °F 35% 29.91 in 10.0 mi SW 8.1 mph 17.3 mph N/A   Partly Cloudy
4:58 PM 95.0 °F 97.4 °F 65.3 °F 37% 29.89 in 10.0 mi SW 5.8 mph - N/A   Mostly Cloudy
5:58 PM 93.9 °F 95.2 °F 63.5 °F 36% 29.90 in 10.0 mi WSW 3.5 mph - N/A   Clear
6:58 PM 92.7 °F 97.7 °F 69.3 °F 46% 29.89 in 10.0 mi NW 12.7 mph - N/A   Clear
7:58 PM 87.4 °F 94.4 °F 72.7 °F 61% 29.90 in 10.0 mi NNW 13.8 mph - N/A   Overcast
8:58 PM 84.4 °F 85.9 °F 64.6 °F 51% 29.94 in 10.0 mi North 21.9 mph 26.5 mph N/A   Mostly Cloudy
9:08 PM 84.2 °F 85.6 °F 64.4 °F 51% 29.90 in 10.0 mi North 18.4 mph 27.6 mph N/A Thunderstorm Thunderstorm
9:58 PM 78.8 °F - 69.8 °F 74% 29.95 in 5.0 mi ENE 16.1 mph 27.6 mph N/A Rain , Thunderstorm Thunderstorms and Rain
10:43 PM 75.2 °F - 69.8 °F 83% 30.02 in 10.0 mi NNE 6.9 mph - N/A Thunderstorm Overcast
10:58 PM 75.6 °F - 70.0 °F 83% 29.98 in 10.0 mi SSE 3.5 mph - 0.06 in   Mostly Cloudy
11:58 PM 73.6 °F - 71.4 °F 93% 29.96 in 10.0 mi Calm Calm - N/A   Partly Cloudy